www.pogodaiklimat.ru

Погода и климат >> Архив погоды >> Россия >> Марий-Эл >> Козьмодемьянск


ПОГОДА в Козьмодемьянске

  • Прогноз погоды в Козьмодемьянске
  • Монитор погоды в Козьмодемьянске

АРХИВ ПОГОДЫ в Козьмодемьянске

Время (UTC), дата Ветер
(напр.,м/с)
 
Видим.   Явления Облачность Т
(С)
Тd
(С)
f
(%)
Тe
(С)
Тes
(С)
Комфортность P
(гПа)
Po
(гПа)
Тmin
(С)
Tmax
(С)
R
(мм)
R24
(мм)
S
(см)
03 14.09 Ю 6-9
{10}
50 км 10/0
[Ac und]
+15.5 +5.5 51 +14 +14 1010.9 998.0 +15.5
06 14.09 Ю 6-9
{11}
50 км 10/4 600 м
[Cb cap Ac trans Ci ing]
+17.3 +5.2 45 +17 +17 1008.9 996.2
09 14.09 ЮЗ 4-8
{11}
50 км 10/3 600 м
[Cb cap Ac As Ci ing]
+18.9 +7.1 46 +19 +21 1008.9 996.2
12 14.09 ЮЗ 4-7
{10}
50 км в посл. час ливневой дождь 10/8 570 м
[Cb cap Ac As Ci ing]
+14.7 +10.6 76 +14 +14 1010.3 997.4
15 14.09 З 4-7
{9}
50 км слаб. ливневой дождь 10/8 500 м
[Cb cap Ac As Ci ing]
+14.0 +9.8 76 +13 +13 1010.7 997.8 +19.8 0.8
18 14.09 З 3-5
{8}
10 км {ливн. осадки} 10/3 600 м
[Cb calv Ac trans Ci ing]
+13.4 +8.5 72 +12 +12 1011.5 998.5
21 14.09 З 3-5
{9}
10 км 10/0
[Ac trans Ci ing]
+11.8 +7.5 75 +10 +10 1012.0 998.9
00 15.09 З 3-6
{7}
10 км 10/0
[Ci fib]
+10.1 +6.0 76 +8 +8 1011.9 998.8
03 15.09 З 4-6
{8}
50 км 3/3 300 м
[St Ci fib]
+8.2 +5.7 84 +5 +5 1012.0 998.7 +8.1 0.0
06 15.09 З 4-7
{8}
50 км 6/4 300 м
[Cb calv Ci fib]
+10.3 +6.1 75 +8 +9 1012.4 999.3
09 15.09 З 3-7
{7}
50 км 8/6 540 м
[Cb calv Ci fib]
+14.0 +5.1 55 +13 +15 1011.4 998.6
12 15.09 З 3-7
{8}
50 км 8/8 450 м
[Cb calv Ci fib]
+14.0 +2.5 46 +13 +14 1011.0 998.0
15 15.09 ЮЗ 2-4
{7}
50 км 4/3 300 м
[Cb calv Ci fib]
+12.4 +2.8 52 +12 +12 1010.0 997.0 +14.8
18 15.09 ЮЗ 3-5
{6}
10 км 1/0
[Ci fib]
+9.2 +3.9 69 +7 +7 1009.7 996.5
21 15.09 ЮЗ 4-6
{7}
10 км 10/0
[Ci fib]
+7.8 +3.6 75 +5 +5 1008.2 995.0
00 16.09 ЮЗ 5-8
{8}
10 км {ливн. осадки} 10/0
[Ac trans Cs]
+7.9 +4.0 76 +4 +4 1006.1 993.0
03 16.09 Ю 5-11
{11}
50 км в посл. час ливневой дождь 10/8 570 м
[Cb calv Ac trans]
+8.4 +3.8 73 +5 +5 1002.4 989.3 +7.5 0.0
06 16.09 ЮЗ 6-10
{11}
50 км в посл. час ливневой дождь 10/10 420 м
[Cb cap]
+8.8 +6.2 84 +5 +5 999.6 986.6
09 16.09 ЮЗ 4-9
{12}
8000 м слаб. морось 10/10 360 м
[St]
+9.4 +7.5 88 +6 +6 997.9 984.9
12 16.09 ЮЗ 4-9
{10}
50 км {ливн. осадки, морось} 10/10 400 м
[Cb cap]
+10.5 +7.9 84 +8 +8 996.4 983.5
15 16.09 ЮЗ 3-6
{10}
50 км в посл. час ливневой дождь 10/10 420 м
[Cb cap]
+10.5 +8.0 84 +8 +8 996.0 983.1 +10.8 2
18 16.09 ЮЗ 4-8
{8}
10 км {ливн. осадки} 10/4 300 м
[Cb calv Ac trans Ci fib]
+10.1 +7.8 86 +7 +7 995.9 983.2
21 16.09 ЮЗ 3-6
{10}
10 км 8/0
[Ac trans Ci fib]
+8.9 +6.5 85 +6 +6 996.3 983.3
00 17.09 ЮЗ 4-7
{8}
10 км ясно +8.2 +6.1 87 +5 +5 996.0 983.0
03 17.09 ЮЗ 5-8
{9}
50 км 4/3 600 м
[Sc Ac trans Ci fib]
+7.8 +5.6 86 +4 +4 995.3 982.3 +7.6
06 17.09 ЮЗ 4-7
{10}
50 км 10/6 570 м
[Cb cap Ac trans Ci fib]
+9.9 +6.7 80 +7 +8 996.0 983.0
09 17.09 ЮЗ 4-8
{10}
50 км 10/10 540 м
[Cb cap]
+12.8 +6.4 65 +11 +11 995.6 982.8
12 17.09 ЮЗ 5-9
{12}
50 км 8/4 600 м
[Cb cap Ac trans Ci fib]
+13.8 +4.4 53 +12 +13 995.5 982.7
15 17.09 ЮЗ 4-8
{9}
50 км 10/6 540 м
[Cb cap Ac trans Ci fib]
+11.9 +5.8 66 +10 +10 995.5 982.7 +14.4
18 17.09 ЮЗ 3-5
{8}
10 км {ливн. осадки} 8/3 600 м
[Cb cap Ac trans Ci fib]
+9.1 +5.1 76 +7 +7 996.6 983.6
21 17.09 ЮЗ 3-6
{6}
10 км 9/3 600 м
[Cb calv Ac trans]
+7.5 +4.5 81 +5 +5 997.1 984.0
00 18.09 ЮЗ 2-6
{8}
10 км 10/3 600 м
[Cb cap Ac trans]
+8.8 +5.0 77 +7 +7 997.5 984.5
03 18.09 ЮЗ 3-5
{8}
50 км 10/10 570 м
[Cb cap]
+7.4 +4.8 84 +5 +5 998.6 985.5 +6.8 0.0
06 18.09 ЮЗ 3-5
{6}
50 км 10/10 500 м
[Cb calv]
+9.4 +5.7 78 +7 +7 999.0 986.0
09 18.09 З 3-7
{8}
50 км слаб. ливневой дождь 10/10 480 м
[Cb cap]
+10.7 +5.7 71 +9 +9 999.3 986.3
12 18.09 З 3-6
{9}
50 км {ливн. осадки} 10/4 300 м
[Cb calv Ac trans Ci fib]
+12.2 +4.2 58 +11 +12 999.0 986.1
15 18.09 Ю 1-1
{8}
50 км 8/4 300 м
[Cb calv Ac trans]
+9.5 +5.5 76 +9 +9 999.1 986.1 +12.6 0.5
18 18.09 ЮЗ 2-3
{3}
10 км 3/0
[Ac trans]
+8.1 +3.8 74 +6 +6 998.5 985.5
21 18.09 З 1-1
{3}
10 км 10/0
[Ac und]
+8.0 +3.9 75 +7 +7 996.7 983.7
00 19.09 СЗ 1-2
{2}
10 км 6/0
[Ac trans]
+5.7 +4.4 91 +4 +4 995.8 982.7
03 19.09 З 1-2
{3}
50 км 10/4 600 м
[Cb calv Ac trans]
+5.8 +4.4 91 +5 +5 995.8 982.7 +5.1
06 19.09 З 2-4
{5}
50 км 10/8 600 м
[Cb calv Ac As]
+7.9 +4.9 81 +6 +6 998.1 985.0
09 19.09 З 4-9
{9}
50 км 6/6 570 м
[Cb calv]
+12.1 +3.9 57 +10 +12 1000.2 987.3
12 19.09 З 3-5
{9}
50 км слаб. ливневой дождь 8/8 570 м
[Cb cap]
+10.2 +5.9 75 +8 +9 1003.3 990.3
15 19.09 З 3-5
{8}
50 км в посл. час ливневой дождь 9/9 500 м
[Cb cap]
+8.8 +5.1 78 +6 +6 1006.1 993.0 +12.5 0.8
18 19.09 С 2-6
{8}
10 км в посл. час ливневой дождь 10/10 480 м
[Cb cap]
+7.2 +5.4 88 +5 +5 1008.9 995.7
21 19.09 З 3-5
{6}
10 км 10/6 450 м
[Cb calv Ac As]
+6.6 +4.4 86 +3 +3 1010.4 997.1
00 20.09 З 2-4
{5}
10 км 10/3 300 м
[Cb calv Ac trans]
+5.9 +4.0 88 +3 +3 1011.6 998.3
03 20.09 З 1-2
{4}
50 км 10/1 600 м
[Cb calv Ac As]
+5.1 +3.4 89 +4 +4 1012.4 999.0 +4.9 0.4
06 20.09 СЗ 1-1
{2}
50 км 10/3 600 м
[Cb calv Ac trans]
+7.1 +4.8 85 +6 +7 1013.2 999.9
09 20.09 СВ 1-2
{3}
50 км в посл. час ливневой дождь 10/9 570 м
[Cb cap Ac trans]
+8.5 +2.8 67 +8 +8 1012.9 999.7
12 20.09 ЮВ 1-2
{3}
50 км {ливн. осадки} 10/3 600 м
[Cb calv Ac As]
+9.3 +3.3 66 +9 +10 1012.1 998.9
15 20.09 штиль 0
{4}
20 км слаб. ливневой дождь 10/10 540 м
[Cb cap]
+7.2 +5.5 89 +6 +6 1011.4 998.2 +9.3 2
18 20.09 С 1-4
{7}
10 км слаб. ливневой дождь 10/10 660 м
[Cb cap]
+6.2 +4.4 88 +5 +5 1010.8 997.5

 

Местоположение метеостанции Козьмодемьянск (Марий-Эл, Россия): широта 56.33 долгота 46.58 высота над уровнем моря 107 м.

В архиве по умолчанию представлена погода в Козьмодемьянске за последнюю неделю. Архивные данные за месяц целиком и за предыдущие месяцы, начиная с января 2011 года, Вы можете получить, выбрав интересующий диапазон дат из раскрывающегося списка и нажав кнопку "Ввод!".


*Определитесь, кто Вы:
робот инопланетянин человек

Внимание! Время в таблицах - всемирное. Для получения местного времени необходимо прибавить поправку, которая равна 3 ч.

Смотрите также архив погоды в соседних городах и на ближайших метеорологических станциях:

Погода в Чебоксарах (Чувашия, Россия) (54 км)
Погода в Йошкар-Оле (Марий-Эл, Россия) (80 км)
Погода в Санчурске (Кировская область, Россия) (85 км)
Погода в Воскресенском (Нижегородская область, Россия) (88 км)
Погода в Лысково (Нижегородская область, Россия) (102 км)
Погода в Канаше (Чувашия, Россия) (106 км)
Погода в Сергаче (Нижегородская область, Россия) (112 км)
Погода в Красных Баках (Нижегородская область, Россия) (124 км)
Погода в Порецком (Чувашия, Россия) (129 км)
Погода в Вязовых (Татарстан, Россия) (133 км)

Пояснения к столбцам:

Ветер - указаны скорость ветра в м/с - средняя за 10 мин, порывы в срок и между сроками (в фигурных скобках) и направление, откуда дует ветер: С - северный, СВ - северо-восточный, В - восточный, ЮВ - юго-восточный, Ю - южный, ЮЗ - юго-западный, З - западный, СЗ - северо-западный.
Видимость - горизонтальная дальность видимости в метрах или километрах. При видимости от 1 до 10 км при отсутствии осадков обычно наблюдается дымка, при ухудшении видимости до 1 км и менее - туман. В сухую погоду видимость может ухудшаться дымом, пылью или мглою.
Явления - указаны атмосферные явления, наблюдавшиеся в срок или в последний час перед сроком; фигурными скобками обозначены явления, наблюдавшиеся между сроками (за 1-3 часа до срока); квадратными скобками обозначены град или гололедные отложения с указанием их диаметра в мм.
Облачность - указаны через наклонную черту общая и нижняя облачность в баллах и высота нижней границы облаков в метрах; квадратными скобками обозначены формы облаков: Ci - перистые, Cs - перисто-слоистые, Cc - перисто-кучевые, Ac - высококучевые, As - высокослоистые, Sc - слоисто-кучевые, Ns - слоисто-дождевые, Cu - кучевые, Cb - кучево-дождевые. Подробнее классификацию облаков см. в Атласе облаков (PDF).
T - Температура воздуха - температура, измеренная на высоте 2 м над землей.
Td - Температура точки росы - температура, при понижении до которой содержащийся в воздухе водяной пар достигнет насыщения.
f - Относительная влажность воздуха - влажноcть воздуха, измеренная на высоте 2 м над землей.
Te - Эффективная температура - температура, которую ощущает одетый по сезону человек в тени. Характеристика душности погоды. При расчете учитывается влияние влажности воздуха и скорости ветра на теплоощущения человека.
Tes - Эффективная температура на солнце - температура, которую ощущает человек, с поправкой на солнечный нагрев. Характеристика знойности погоды. Зависит от высоты солнца над горизонтом, облачности и скорости ветра. Ночью, в пасмурную погоду, а также при ветре 12 м/с и более поправка равна нулю.
P - Атмосферное давление - приведенное к уровню моря атмосферное давление.
Po - Атмосферное давление - измеренное на уровне метеостанции атмосферное давление.
Tmin - Минимальная температура - минимум температуры воздуха на высоте 2 м над землей.
Tmax - Максимальная температура - максимум температуры воздуха на высоте 2 м над землей.
R - Количество осадков - Количество выпавших осадков за период времени, мм. При наведении курсора мыши на число - период времени, за который выпало указанное количество осадков.
R24 - Количество осадков - Количество выпавших осадков за 24 часа, мм.
S - Снежный покров - Высота снежного покрова, см. При наведении курсора мыши на число - состояние снежного покрова и степень покрытия местности в баллах.